This is the latest recevied weather packets stored in our database for station/object TA3HRJ-12. If no packets are shown the sender has not sent any weather packets the latest 1 day(s).
| Time | Temp. | Humidity | Pressure | Rain* | Wind** | Luminosity | Snow |
|---|---|---|---|---|---|---|---|
| 1777899315 | 16.11° C | 37% | 1019.7 hPa | - | - | - | - |
| 1777898415 | 13.33° C | 42% | 1019.8 hPa | - | - | - | - |
| 1777897515 | 15° C | 39% | 1019.7 hPa | - | - | - | - |
| 1777896614 | 15.56° C | 39% | 1019.8 hPa | - | - | - | - |
| 1777895714 | 16.67° C | 37% | 1019.8 hPa | - | - | - | - |
| 1777894814 | 15.56° C | 39% | 1019.9 hPa | - | - | - | - |
| 1777893914 | 15° C | 39% | 1019.9 hPa | - | - | - | - |
| 1777893014 | 15.56° C | 38% | 1019.9 hPa | - | - | - | - |
| 1777892114 | 15.56° C | 38% | 1019.8 hPa | - | - | - | - |
| 1777891214 | 15° C | 39% | 1019.6 hPa | - | - | - | - |
| 1777890314 | 15° C | 40% | 1019.6 hPa | - | - | - | - |
| 1777889413 | 12.78° C | 44% | 1019.7 hPa | - | - | - | - |
| 1777888510 | 13.33° C | 43% | 1019.6 hPa | - | - | - | - |
| 1777887610 | 13.89° C | 45% | 1019.6 hPa | - | - | - | - |
| 1777886710 | 13.89° C | 39% | 1019.6 hPa | - | - | - | - |
| 1777885809 | 13.89° C | 40% | 1019.5 hPa | - | - | - | - |
| 1777884909 | 13.33° C | 42% | 1019.5 hPa | - | - | - | - |
| 1777884009 | 12.78° C | 43% | 1019.4 hPa | - | - | - | - |
| 1777883109 | 12.78° C | 43% | 1019.3 hPa | - | - | - | - |
| 1777882209 | 12.22° C | 44% | 1019.2 hPa | - | - | - | - |
| 1777881309 | 12.22° C | 43% | 1019 hPa | - | - | - | - |
| 1777880409 | 12.78° C | 43% | 1018.9 hPa | - | - | - | - |
| 1777879509 | 12.78° C | 43% | 1018.7 hPa | - | - | - | - |
| 1777878609 | 11.11° C | 45% | 1018.7 hPa | - | - | - | - |
| 1777877709 | 12.22° C | 44% | 1018.5 hPa | - | - | - | - |
* Rain since midnight (hover to see other rain measurements)
** Current wind speed in m/s (hover to see current wind gust speed)